EW5206 Weather Reports


time (UTC)temp
C
wind
direction
speed
KPH
gust
KPH
rain 1hr
cm
rain 24hr
cm
rain mn
cm
humidity
%
barometer
mb
20260510204530 25 0.0 0.0 0.00 0.00 0.00 37 1013.2
20260510203035 25 0.0 0.0 0.00 0.00 0.00 38 1013.3
20260510201528 25 0.0 0.0 0.00 0.00 0.00 39 1013.3
20260510200029 25 0.0 0.0 0.00 0.00 0.00 38 1013.3
20260510194532 25 0.0 0.0 0.00 0.00 0.00 40 1013.5
20260510193027 25 0.0 0.0 0.00 0.00 0.00 38 1013.5
20260510191527 25 0.0 0.0 0.00 0.00 0.00 39 1013.6
20260510190029 25 0.0 0.0 0.00 0.00 0.00 39 1013.8
20260510184525 26 0.0 0.0 0.00 0.00 0.00 37 1013.9
20260510183026 26 0.0 0.0 0.00 0.00 0.00 37 1013.8
20260510181527 26 0.0 0.0 0.00 0.00 0.00 36 1013.9
20260510180027 26 0.0 0.0 0.00 0.00 0.00 35 1014.2
20260510174523 26 0.0 0.0 0.00 0.00 0.00 37 1014.2
20260510173022 26 0.0 0.0 0.00 0.00 0.00 36 1014.4
20260510171521 26 0.0 0.0 0.00 0.00 0.00 36 1014.4
20260510170021 27 0.0 0.0 0.00 0.00 0.00 36 1014.6
20260510164522 27 0.0 0.0 0.00 0.00 0.00 36 1014.6
20260510163021 27 0.0 0.0 0.00 0.00 0.00 36 1014.8
20260510161521 28 0.0 0.0 0.00 0.00 0.00 35 1014.7
20260510160025 28 0.0 0.0 0.00 0.00 0.00 35 1014.7
20260510154520 30 0.0 0.0 0.00 0.00 0.00 34 1014.9
20260510153020 31 0.0 0.0 0.00 0.00 0.00 34 1014.9
20260510151518 31 0.0 0.0 0.00 0.00 0.00 32 1014.8
20260510150020 31 0.0 0.0 0.00 0.00 0.00 32 1014.9
20260510144520 31 0.0 0.0 0.00 0.00 0.00 33 1014.8
20260510143016 30 0.0 0.0 0.00 0.00 0.00 35 1014.8
20260510141514 30 0.0 0.0 0.00 0.00 0.00 36 1015.0
20260510140001 28 0.0 0.0 0.00 0.00 0.00 40 1014.9
20260510134606 27 0.0 0.0 0.00 0.00 0.00 46 1015.2
20260510133053 25 0.0 0.0 0.00 0.00 0.00 50 1015.2
20260510131549 22 0.0 0.0 0.00 0.00 0.00 55 1015.2
20260510130044 20 0.0 0.0 0.00 0.00 0.00 61 1015.2
20260510124553 18 0.0 0.0 0.00 0.00 0.00 65 1015.3
20260510123036 17 0.0 0.0 0.00 0.00 0.00 70 1015.1
20260510121531 14 0.0 0.0 0.00 0.00 0.00 79 1015.1
20260510120031 12 0.0 0.0 0.00 0.00 0.00 85 1014.9
20260510114536 11 0.0 0.0 0.00 0.00 0.00 88 1015.0
20260510113031 11 0.0 0.0 0.00 0.00 0.00 88 1014.7
20260510111525 10 0.0 0.0 0.00 0.00 0.00 87 1014.5
20260510110027 10 0.0 0.0 0.00 0.00 0.00 86 1014.2
20260510104530 10 0.0 0.0 0.00 0.00 0.00 83 1013.8
20260510103015 11 0.0 0.0 0.00 0.00 0.00 82 1013.6
20260510101512 11 0.0 0.0 0.00 0.00 0.00 81 1013.3
20260510100011 11 0.0 0.0 0.00 0.00 0.00 82 1013.2
20260510094521 12 0.0 0.0 0.00 0.00 0.00 84 1013.1
20260510093009 12 0.0 0.0 0.00 0.00 0.00 84 1013.0
20260510091508 11 0.0 0.0 0.00 0.00 0.00 84 1012.9
20260510090006 11 0.0 0.0 0.00 0.00 0.00 84 1012.8
20260510084505 11 0.0 0.0 0.00 0.00 0.00 84 1012.8
20260510083004 11 0.0 0.0 0.00 0.00 0.00 83 1012.6
20260510081505 11 0.0 0.0 0.00 0.00 0.00 82 1012.7
20260510080105 11 0.0 0.0 0.00 0.00 0.00 81 1012.5
20260510074559 11 0.0 0.0 0.00 0.00 0.00 80 1012.4
20260510073110 11 0.0 0.0 0.00 0.00 0.00 79 1012.3
20260510071559 11 0.0 0.0 0.00 0.00 0.00 79 1012.2
20260510070054 12 0.0 0.0 0.00 0.00 0.00 77 1012.2
20260510064553 12 0.0 0.0 0.00 0.00 0.00 76 1012.1
20260510063050 12 0.0 0.0 0.00 0.00 0.00 75 1012.1
20260510061559 12 0.0 0.0 0.00 0.00 0.00 75 1012.2
20260510060047 12 0.0 0.0 0.00 0.00 0.00 75 1012.0
20260510054557 13 0.0 0.0 0.00 0.00 0.00 74 1012.1
20260510053046 13 0.0 0.0 0.00 0.00 0.00 74 1012.3
20260510051542 13 0.0 0.0 0.00 0.00 0.00 73 1012.2
20260510050043 13 0.0 0.0 0.00 0.00 0.00 71 1012.5
20260510044545 13 0.0 0.0 0.00 0.00 0.00 70 1012.4
20260510043036 13 0.0 0.0 0.00 0.00 0.00 69 1012.4
20260510041540 14 0.0 0.0 0.00 0.00 0.00 68 1012.4
20260510040029 14 0.0 0.0 0.00 0.00 0.00 66 1012.3
20260510034527 14 0.0 0.0 0.00 0.00 0.00 67 1012.2
20260510033027 14 0.0 0.0 0.00 0.00 0.00 66 1012.2
20260510031545 15 0.0 0.0 0.00 0.00 0.00 66 1012.2
20260510030033 15 0.0 0.0 0.00 0.00 0.00 65 1012.2
20260510024526 15 0.0 0.0 0.00 0.00 0.00 64 1012.2
20260510023025 15 0.0 0.0 0.00 0.00 0.00 64 1012.0
20260510021531 15 0.0 0.0 0.00 0.00 0.00 64 1011.9
20260510020024 15 0.0 0.0 0.00 0.00 0.00 62 1011.8
20260510014525 15 0.0 0.0 0.00 0.00 0.00 61 1011.4
20260510013023 16 0.0 0.0 0.00 0.00 0.00 60 1011.1
20260510011523 16 0.0 0.0 0.00 0.00 0.00 59 1010.7
20260510010024 16 0.0 0.0 0.00 0.00 0.00 57 1010.5
20260510004522 17 0.0 0.0 0.00 0.00 0.00 56 1010.5
20260510003021 17 0.0 0.0 0.00 0.00 0.00 54 1010.5
20260510001520 18 0.0 0.0 0.00 0.00 0.00 52 1010.4
20260510000022 18 0.0 0.0 0.00 0.00 0.00 51 1010.2
20260509234520 18 0.0 0.0 0.00 0.00 0.00 50 1009.9
20260509233019 19 0.0 0.0 0.00 0.00 0.00 49 1009.7
20260509231519 20 0.0 0.0 0.00 0.00 0.00 48 1009.7
20260509230019 20 0.0 0.0 0.00 0.00 0.00 47 1009.5
20260509224519 20 0.0 0.0 0.00 0.00 0.00 46 1009.5
20260509223020 20 0.0 0.0 0.00 0.00 0.00 46 1009.5
20260509221517 21 0.0 0.0 0.00 0.00 0.00 44 1009.3
20260509220017 21 0.0 0.0 0.00 0.00 0.00 44 1009.3
20260509214516 21 0.0 0.0 0.00 0.00 0.00 43 1009.3
20260509213017 22 0.0 0.0 0.00 0.00 0.00 43 1009.1
20260509211517 22 0.0 0.0 0.00 0.00 0.00 42 1009.0
20260509210016 22 0.0 0.0 0.00 0.00 0.00 43 1008.9